Time,TemperatureF,DewpointF,PressureIn,WindDirection,WindDirectionDegrees,WindSpeedMPH,WindSpeedGustMPH,Humidity,HourlyPrecipIn,Conditions,Clouds,dailyrainin,SoftwareType,DateUTC
2013-04-13 00:02:00,39.0,35.0,29.88,West,269,8.0,12.0,87,0.00,,,0.02,,2013-04-13 05:02:00,
2013-04-13 00:12:00,39.0,35.0,29.88,West,269,8.0,12.0,87,0.00,,,0.02,,2013-04-13 05:12:00,
2013-04-13 00:22:00,39.0,35.0,29.88,WNW,284,8.0,12.0,86,0.00,,,0.02,,2013-04-13 05:22:00,
2013-04-13 00:32:00,39.0,35.0,29.88,West,269,7.0,12.0,87,0.00,,,0.02,,2013-04-13 05:32:00,
2013-04-13 00:43:00,39.0,35.0,29.88,West,269,7.0,12.0,87,0.00,,,0.02,,2013-04-13 05:43:00,
2013-04-13 00:52:00,39.0,35.0,29.88,West,268,6.0,10.0,86,0.00,,,0.02,,2013-04-13 05:52:00,
2013-04-13 01:02:00,39.0,35.0,29.89,West,275,7.0,11.0,86,0.00,,,0.02,,2013-04-13 06:02:00,
2013-04-13 01:12:00,39.0,35.0,29.89,West,275,7.0,11.0,86,0.00,,,0.02,,2013-04-13 06:12:00,
2013-04-13 01:23:00,39.0,35.0,29.89,West,261,6.0,9.0,87,0.00,,,0.02,,2013-04-13 06:23:00,
2013-04-13 01:34:00,38.0,34.0,29.90,WNW,302,6.0,10.0,86,0.00,,,0.02,,2013-04-13 06:34:00,
2013-04-13 01:53:00,38.0,35.0,29.90,West,272,5.0,9.0,88,0.00,,,0.02,,2013-04-13 06:53:00,
2013-04-13 02:05:00,38.0,35.0,29.91,WNW,282,8.0,12.0,88,0.00,,,0.02,,2013-04-13 07:05:00,
2013-04-13 02:14:00,38.0,35.0,29.91,WNW,282,8.0,12.0,88,0.00,,,0.02,,2013-04-13 07:14:00,
2013-04-13 02:24:00,37.0,35.0,29.90,West,280,5.0,10.0,91,0.00,,,0.02,,2013-04-13 07:24:00,
2013-04-13 02:34:00,37.0,34.0,29.90,WSW,256,8.0,13.0,88,0.00,,,0.02,,2013-04-13 07:34:00,
2013-04-13 02:44:00,37.0,34.0,29.90,WSW,256,8.0,13.0,88,0.00,,,0.02,,2013-04-13 07:44:00,
2013-04-13 02:54:00,37.0,34.0,29.89,West,275,7.0,12.0,90,0.01,,,0.03,,2013-04-13 07:54:00,
2013-04-13 03:06:00,37.0,35.0,29.88,West,277,5.0,10.0,91,0.01,,,0.03,,2013-04-13 08:06:00,
2013-04-13 03:15:00,37.0,35.0,29.88,West,277,5.0,10.0,91,0.01,,,0.03,,2013-04-13 08:15:00,
2013-04-13 03:25:00,37.0,35.0,29.88,West,281,4.0,8.0,91,0.01,,,0.03,,2013-04-13 08:25:00,
2013-04-13 03:34:00,37.0,35.0,29.88,West,270,3.0,8.0,92,0.01,,,0.03,,2013-04-13 08:34:00,
2013-04-13 03:45:00,37.0,35.0,29.88,West,270,3.0,8.0,92,0.01,,,0.03,,2013-04-13 08:45:00,
2013-04-13 03:53:00,37.0,35.0,29.88,WSW,238,4.0,9.0,92,0.00,,,0.03,,2013-04-13 08:53:00,
2013-04-13 04:05:00,37.0,34.0,29.88,WSW,249,7.0,12.0,89,0.00,,,0.03,,2013-04-13 09:05:00,
2013-04-13 04:14:00,37.0,34.0,29.88,WSW,249,7.0,12.0,89,0.00,,,0.03,,2013-04-13 09:14:00,
2013-04-13 04:24:00,37.0,34.0,29.89,West,265,6.0,12.0,89,0.00,,,0.03,,2013-04-13 09:24:00,
2013-04-13 04:36:00,37.0,34.0,29.89,West,264,8.0,12.0,89,0.00,,,0.03,,2013-04-13 09:36:00,
2013-04-13 04:49:00,37.0,34.0,29.89,West,264,8.0,12.0,89,0.00,,,0.03,,2013-04-13 09:49:00,
2013-04-13 05:05:00,37.0,34.0,29.88,WSW,257,8.0,16.0,87,0.00,,,0.03,,2013-04-13 10:05:00,
2013-04-13 05:15:00,36.0,33.0,29.88,West,259,7.0,12.0,88,0.00,,,0.03,,2013-04-13 10:15:00,
2013-04-13 05:24:00,36.0,33.0,29.88,West,259,7.0,12.0,88,0.00,,,0.03,,2013-04-13 10:24:00,
2013-04-13 05:36:00,36.0,33.0,29.89,West,275,5.0,11.0,90,0.00,,,0.03,,2013-04-13 10:36:00,
2013-04-13 05:53:00,36.0,34.0,29.89,WSW,256,6.0,11.0,91,0.00,,,0.03,,2013-04-13 10:53:00,
2013-04-13 06:05:00,36.0,34.0,29.89,West,273,7.0,10.0,92,0.00,,,0.03,,2013-04-13 11:05:00,
2013-04-13 06:13:00,36.0,34.0,29.89,West,273,7.0,10.0,92,0.00,,,0.03,,2013-04-13 11:13:00,
2013-04-13 06:24:00,36.0,34.0,29.89,West,273,6.0,12.0,93,0.00,,,0.03,,2013-04-13 11:24:00,
2013-04-13 06:34:00,36.0,34.0,29.89,WNW,289,8.0,15.0,92,0.00,,,0.03,,2013-04-13 11:34:00,
2013-04-13 06:44:00,36.0,34.0,29.89,WNW,289,8.0,15.0,92,0.00,,,0.03,,2013-04-13 11:44:00,
2013-04-13 06:53:00,35.0,33.0,29.90,West,261,9.0,14.0,91,0.00,,,0.03,,2013-04-13 11:53:00,
2013-04-13 07:08:00,35.0,32.0,29.89,West,263,7.0,12.0,88,0.00,,,0.03,,2013-04-13 12:08:00,
2013-04-13 07:15:00,35.0,32.0,29.89,West,263,7.0,12.0,88,0.00,,,0.03,,2013-04-13 12:15:00,
2013-04-13 07:24:00,36.0,33.0,29.89,West,269,7.0,14.0,87,0.00,,,0.03,,2013-04-13 12:24:00,
2013-04-13 07:35:00,36.0,32.0,29.90,West,271,10.0,15.0,85,0.00,,,0.03,,2013-04-13 12:35:00,
2013-04-13 07:46:00,36.0,32.0,29.90,West,271,10.0,15.0,85,0.00,,,0.03,,2013-04-13 12:46:00,
2013-04-13 07:54:00,36.0,31.0,29.91,WSW,249,11.0,16.0,82,0.00,,,0.03,,2013-04-13 12:54:00,
2013-04-13 08:05:00,36.0,31.0,29.92,West,266,11.0,16.0,81,0.00,,,0.03,,2013-04-13 13:05:00,
2013-04-13 08:15:00,36.0,31.0,29.92,West,266,11.0,16.0,81,0.00,,,0.03,,2013-04-13 13:15:00,
2013-04-13 08:34:00,36.0,31.0,29.92,West,275,12.0,17.0,81,0.00,,,0.03,,2013-04-13 13:34:00,
2013-04-13 08:47:00,36.0,31.0,29.92,West,275,12.0,17.0,81,0.00,,,0.03,,2013-04-13 13:47:00,
2013-04-13 08:53:00,36.0,31.0,29.92,West,271,12.0,18.0,82,0.00,,,0.02,,2013-04-13 13:53:00,
2013-04-13 09:04:00,36.0,31.0,29.93,West,267,13.0,17.0,82,0.00,,,0.02,,2013-04-13 14:04:00,
2013-04-13 09:14:00,36.0,31.0,29.93,West,267,13.0,17.0,82,0.00,,,0.02,,2013-04-13 14:14:00,
2013-04-13 09:23:00,37.0,32.0,29.93,West,260,12.0,22.0,82,0.00,,,0.02,,2013-04-13 14:23:00,
2013-04-13 09:45:00,37.0,32.0,29.93,West,267,11.0,18.0,83,0.00,,,0.02,,2013-04-13 14:45:00,
2013-04-13 09:54:00,37.0,32.0,29.94,West,277,12.0,19.0,82,0.00,,,0.02,,2013-04-13 14:54:00,
2013-04-13 10:04:00,38.0,33.0,29.94,West,281,11.0,18.0,82,0.00,,,0.02,,2013-04-13 15:04:00,
2013-04-13 10:14:00,38.0,33.0,29.94,West,281,11.0,18.0,82,0.00,,,0.02,,2013-04-13 15:14:00,
2013-04-13 10:35:00,38.0,32.0,29.95,West,275,12.0,19.0,78,0.00,,,0.02,,2013-04-13 15:35:00,
2013-04-13 10:44:00,38.0,32.0,29.95,West,275,12.0,19.0,78,0.00,,,0.02,,2013-04-13 15:44:00,
2013-04-13 10:54:00,38.0,32.0,29.96,West,267,12.0,18.0,78,0.00,,,0.02,,2013-04-13 15:54:00,
2013-04-13 11:06:00,38.0,32.0,29.96,West,269,10.0,19.0,79,0.00,,,0.02,,2013-04-13 16:06:00,
2013-04-13 11:15:00,38.0,32.0,29.96,West,269,10.0,19.0,79,0.00,,,0.02,,2013-04-13 16:15:00,
2013-04-13 11:24:00,38.0,32.0,29.96,West,265,11.0,18.0,80,0.00,,,0.02,,2013-04-13 16:24:00,
2013-04-13 11:35:00,39.0,33.0,29.96,West,278,11.0,20.0,78,0.00,,,0.02,,2013-04-13 16:35:00,
2013-04-13 11:45:00,39.0,33.0,29.96,West,278,11.0,20.0,78,0.00,,,0.02,,2013-04-13 16:45:00,
2013-04-13 11:53:00,39.0,32.0,29.97,WNW,282,13.0,20.0,75,0.00,,,0.02,,2013-04-13 16:53:00,
2013-04-13 12:06:00,40.0,32.0,29.97,WNW,291,12.0,19.0,73,0.00,,,0.02,,2013-04-13 17:06:00,
2013-04-13 12:20:00,40.0,32.0,29.97,WNW,291,12.0,19.0,73,0.00,,,0.02,,2013-04-13 17:20:00,
2013-04-13 12:37:00,42.0,32.0,29.97,West,263,12.0,18.0,68,0.00,,,0.02,,2013-04-13 17:37:00,
2013-04-13 12:44:00,42.0,32.0,29.97,West,263,12.0,18.0,68,0.00,,,0.02,,2013-04-13 17:44:00,
2013-04-13 12:58:00,42.0,33.0,29.97,West,279,9.0,20.0,70,0.00,,,0.02,,2013-04-13 17:58:00,
2013-04-13 13:05:00,42.0,33.0,29.97,West,265,11.0,18.0,71,0.00,,,0.02,,2013-04-13 18:05:00,
2013-04-13 13:15:00,42.0,33.0,29.97,West,265,11.0,18.0,71,0.00,,,0.02,,2013-04-13 18:15:00,
2013-04-13 13:24:00,43.0,34.0,29.97,WSW,257,13.0,20.0,69,0.00,,,0.02,,2013-04-13 18:24:00,
2013-04-13 13:33:00,43.0,34.0,29.96,West,271,13.0,18.0,71,0.00,,,0.02,,2013-04-13 18:33:00,
2013-04-13 13:42:00,43.0,34.0,29.96,West,271,13.0,18.0,71,0.00,,,0.02,,2013-04-13 18:42:00,
2013-04-13 13:52:00,44.0,36.0,29.97,WNW,295,10.0,17.0,73,0.00,,,0.01,,2013-04-13 18:52:00,
2013-04-13 14:03:00,44.0,35.0,29.97,West,266,10.0,17.0,70,0.00,,,0.01,,2013-04-13 19:03:00,
2013-04-13 14:12:00,44.0,35.0,29.97,West,266,10.0,17.0,70,0.00,,,0.01,,2013-04-13 19:12:00,
2013-04-13 14:22:00,45.0,35.0,29.97,West,263,10.0,18.0,69,0.00,,,0.01,,2013-04-13 19:22:00,
2013-04-13 14:32:00,44.0,35.0,29.96,West,271,10.0,16.0,70,0.00,,,0.01,,2013-04-13 19:32:00,
2013-04-13 14:42:00,44.0,35.0,29.96,West,271,10.0,16.0,70,0.00,,,0.01,,2013-04-13 19:42:00,
2013-04-13 14:52:00,46.0,36.0,29.96,WNW,300,11.0,18.0,67,0.00,,,0.01,,2013-04-13 19:52:00,
2013-04-13 15:02:00,47.0,35.0,29.96,WNW,290,12.0,21.0,64,0.00,,,0.01,,2013-04-13 20:02:00,
2013-04-13 15:12:00,47.0,35.0,29.96,WNW,290,12.0,21.0,64,0.00,,,0.01,,2013-04-13 20:12:00,
2013-04-13 15:22:00,47.0,36.0,29.96,West,273,10.0,17.0,66,0.00,,,0.01,,2013-04-13 20:22:00,
2013-04-13 15:32:00,49.0,37.0,29.96,WSW,254,11.0,16.0,62,0.00,,,0.01,,2013-04-13 20:32:00,
2013-04-13 15:42:00,49.0,37.0,29.96,WSW,254,11.0,16.0,62,0.00,,,0.01,,2013-04-13 20:42:00,
2013-04-13 15:52:00,47.0,36.0,29.95,WSW,249,10.0,17.0,65,0.00,,,0.01,,2013-04-13 20:52:00,
2013-04-13 16:02:00,47.0,35.0,29.95,WSW,257,8.0,15.0,64,0.00,,,0.01,,2013-04-13 21:02:00,
2013-04-13 16:12:00,47.0,35.0,29.95,WSW,257,8.0,15.0,64,0.00,,,0.01,,2013-04-13 21:12:00,
2013-04-13 16:22:00,47.0,35.0,29.95,West,280,8.0,13.0,62,0.00,,,0.01,,2013-04-13 21:22:00,
2013-04-13 16:32:00,48.0,36.0,29.94,WNW,290,6.0,12.0,63,0.00,,,0.01,,2013-04-13 21:32:00,
2013-04-13 16:43:00,48.0,36.0,29.94,WNW,290,6.0,12.0,63,0.00,,,0.01,,2013-04-13 21:43:00,
2013-04-13 16:52:00,49.0,37.0,29.94,WSW,250,9.0,16.0,63,0.00,,,0.01,,2013-04-13 21:52:00,
2013-04-13 17:03:00,48.0,35.0,29.94,West,262,10.0,16.0,61,0.00,,,0.01,,2013-04-13 22:03:00,
2013-04-13 17:12:00,48.0,35.0,29.94,West,262,10.0,16.0,61,0.00,,,0.01,,2013-04-13 22:12:00,
2013-04-13 17:22:00,49.0,37.0,29.94,West,279,10.0,17.0,64,0.00,,,0.01,,2013-04-13 22:22:00,
2013-04-13 17:33:00,49.0,37.0,29.94,WSW,248,8.0,16.0,62,0.00,,,0.01,,2013-04-13 22:33:00,
2013-04-13 17:42:00,49.0,37.0,29.94,WSW,248,8.0,16.0,62,0.00,,,0.01,,2013-04-13 22:42:00,
2013-04-13 17:52:00,49.0,37.0,29.94,West,265,6.0,13.0,62,0.00,,,0.01,,2013-04-13 22:52:00,
2013-04-13 18:02:00,49.0,37.0,29.95,West,271,8.0,14.0,62,0.00,,,0.01,,2013-04-13 23:02:00,
2013-04-13 18:12:00,49.0,37.0,29.95,West,271,8.0,14.0,62,0.00,,,0.01,,2013-04-13 23:12:00,
2013-04-13 18:22:00,48.0,36.0,29.95,WSW,253,6.0,10.0,62,0.00,,,0.01,,2013-04-13 23:22:00,
2013-04-13 18:32:00,48.0,35.0,29.94,West,279,5.0,11.0,61,0.00,,,0.01,,2013-04-13 23:32:00,
2013-04-13 18:42:00,48.0,35.0,29.94,West,279,5.0,11.0,61,0.00,,,0.01,,2013-04-13 23:42:00,
2013-04-13 18:52:00,48.0,36.0,29.94,West,270,4.0,9.0,64,0.00,,,0.01,,2013-04-13 23:52:00,
2013-04-13 19:02:00,47.0,36.0,29.94,West,273,4.0,7.0,66,0.00,,,0.01,,2013-04-14 00:02:00,
2013-04-13 19:12:00,47.0,36.0,29.94,West,273,4.0,7.0,66,0.00,,,0.01,,2013-04-14 00:12:00,
2013-04-13 19:22:00,46.0,36.0,29.94,West,274,5.0,8.0,68,0.00,,,0.01,,2013-04-14 00:22:00,
2013-04-13 19:32:00,46.0,36.0,29.94,WSW,240,3.0,6.0,69,0.00,,,0.01,,2013-04-14 00:32:00,
2013-04-13 19:42:00,46.0,36.0,29.94,WSW,240,3.0,6.0,69,0.00,,,0.01,,2013-04-14 00:42:00,
2013-04-13 19:52:00,46.0,36.0,29.94,WSW,252,1.0,3.0,69,0.00,,,0.01,,2013-04-14 00:52:00,
2013-04-13 20:02:00,45.0,37.0,29.94,WSW,252,1.0,3.0,72,0.00,,,0.01,,2013-04-14 01:02:00,
2013-04-13 20:12:00,45.0,37.0,29.94,WSW,252,1.0,3.0,72,0.00,,,0.01,,2013-04-14 01:12:00,
2013-04-13 20:22:00,44.0,37.0,29.95,WSW,252,0.0,1.0,75,0.00,,,0.01,,2013-04-14 01:22:00,
2013-04-13 20:32:00,44.0,38.0,29.94,WSW,252,0.0,1.0,78,0.00,,,0.01,,2013-04-14 01:32:00,
2013-04-13 20:42:00,44.0,38.0,29.94,WSW,252,0.0,1.0,78,0.00,,,0.01,,2013-04-14 01:42:00,
2013-04-13 20:52:00,44.0,36.0,29.94,WSW,252,0.0,1.0,73,0.00,,,0.01,,2013-04-14 01:52:00,
2013-04-13 21:02:00,45.0,37.0,29.94,WSW,252,0.0,0.0,74,0.00,,,0.01,,2013-04-14 02:02:00,
2013-04-13 21:12:00,45.0,37.0,29.94,WSW,252,0.0,0.0,74,0.00,,,0.01,,2013-04-14 02:12:00,
2013-04-13 21:22:00,44.0,39.0,29.94,SW,217,0.0,3.0,82,0.00,,,0.01,,2013-04-14 02:22:00,
2013-04-13 21:32:00,43.0,39.0,29.94,SW,217,0.0,1.0,86,0.00,,,0.01,,2013-04-14 02:32:00,
2013-04-13 21:42:00,43.0,39.0,29.94,SW,217,0.0,1.0,86,0.00,,,0.01,,2013-04-14 02:42:00,
2013-04-13 21:52:00,43.0,39.0,29.95,SW,217,0.0,0.0,86,0.00,,,0.01,,2013-04-14 02:52:00,
2013-04-13 22:02:00,43.0,39.0,29.95,SW,217,0.0,2.0,87,0.00,,,0.01,,2013-04-14 03:02:00,
2013-04-13 22:12:00,43.0,39.0,29.95,SW,217,0.0,2.0,87,0.00,,,0.01,,2013-04-14 03:12:00,
2013-04-13 22:22:00,43.0,40.0,29.95,SW,217,0.0,2.0,88,0.00,,,0.01,,2013-04-14 03:22:00,
2013-04-13 22:33:00,43.0,40.0,29.95,SW,217,1.0,2.0,88,0.00,,,0.01,,2013-04-14 03:33:00,
2013-04-13 22:42:00,43.0,40.0,29.95,SW,217,1.0,2.0,88,0.00,,,0.01,,2013-04-14 03:42:00,
2013-04-13 22:53:00,43.0,40.0,29.96,SW,217,2.0,4.0,88,0.00,,,0.01,,2013-04-14 03:53:00,
2013-04-13 23:02:00,43.0,40.0,29.95,East,82,2.0,3.0,89,0.00,,,0.01,,2013-04-14 04:02:00,
2013-04-13 23:12:00,43.0,40.0,29.95,East,82,2.0,3.0,89,0.00,,,0.01,,2013-04-14 04:12:00,
2013-04-13 23:23:00,43.0,39.0,29.95,East,81,3.0,5.0,87,0.00,,,0.01,,2013-04-14 04:23:00,
2013-04-13 23:33:00,43.0,39.0,29.96,ENE,78,2.0,4.0,87,0.00,,,0.01,,2013-04-14 04:33:00,
2013-04-13 23:43:00,43.0,39.0,29.96,ENE,78,2.0,4.0,87,0.00,,,0.01,,2013-04-14 04:43:00,
2013-04-13 23:52:00,42.0,39.0,29.96,ENE,77,2.0,3.0,88,0.00,,,0.01,,2013-04-14 04:52:00,